Location: Worth Mountain WMA
(34.9569°N, 81.4819°W)
Time: 20:30:23
(UTC-05:00)

USA 238 DEB - Pass Details

Date: 18 August 2017
Orbit: 1076 x 1136 km, 63.4° (Epoch: 19 November)

Event Time Altitude Azimuth Distance (km) Brightness Sun altitude
Rises 23:41:53 0° 326° (NNW) 3,942 7.7 -35.9°
Reaches altitude 10° 23:44:34 10° 325° (NW) 2,989 6.8 -36.2°
Enters shadow 23:50:06 56° 305° (NW) 1,319 4.2 -36.8°
